星链-3548 (STARLINK-3548 )

导读 | 星芒AI

STARLINK-3548 是 SpaceX Starlink 项目中的一颗低轨通信卫星,属于第三代 Starlink 卫星(也称为 v1.5 或 Block V)。它于2023年发射,部署在约540公里高的近地轨道上,旨在为全球提供高速互联网服务。该卫星采用先进的推进系统和激光通信技术,以提高网络性能和减少延迟。作为 Starlink 卫星群的一部分,STARLINK-3548 有助于扩大覆盖范围,特别是在偏远和网络基础设施不足的地区。

基本信息
目录编号:
51864
目录名称:
STARLINK-3548
国际标识:
2022-022N
轨道中心:
EARTH
卫星名称:
星链-3548
卫星全名:
星链-3548 (STARLINK-3548 )
卫星状态:
在轨 (已飞行1388 天)
发射日期:
2022-03-03 UTC
国别 :
美国 (US)
星等 :
--
轨道信息
数据来源 国际轨道数据 AOE轨道数据
星历时间 2025-12-20T13:19:40+0800
6小时前
查看轨道信息
2025-12-14T07:00:00+0800
6天前
查看轨道信息
半长轴 6917.888km 6917.882km
偏心率 0.0001567 0.0001409
轨道倾角 53.220° 53.217°
近地点辐角 81.051° 101.741°
升交点赤经 5.790° 33.906°
平近点角 279.066° 56.789°
近地点 538.666km 538.772km
远地点 540.836km 540.722km
周期 95.438分钟 95.438分钟
每日圈数 15.088376 15.088397
详细信息
固有亮度:
5
最大亮度:
2.5
卫星平台:
Starlink v1.5
覆盖范围:
全球
运营商:
太空探索技术公司
运营商所在国:
美国
制造商(研发单位):
太空探索技术公司
制造商所在国:
美国
使用方式:
暂无
卫星简介
星链(Starlink)计划是由太空探索技术公司(SpaceX)提出的一个巨型低轨卫星互联网星座项目,计划在2019年至2024年间在太空搭建由约1.2万颗卫星组成的“星链”网络,其中1584颗将部署在地球上空550千米处的近地轨道,并从2020年开始工作。该卫星仍在工作。
2D轨道图
3D轨道图
轨道高度分析图
轨道倾角分析图
轨道综合分析图
查看轨道综合分析图